[[{"header":{"parameterUnit":"m.s-1","parameterCategory":1,"la1":30.2991,"la2":30.254,"lo1":-89.0895,"lo2":-89.0444,"dy":0.0017,"dx":0.0017,"nx":28,"ny":28,"refTime":"2024-11-25T03:00:00:Z","depth":0,"parameterNumber":2,"parameterNumberName":"U-component_of_WINDS"},"data":[0,0,0,0,0,0,0,0,0,0,0,0,0,0,0,0,0,0,0,0,0,0,0,0,0,0,0,0,0,0,0,0,0,0,0,0,0,0,0,0,0,0,0,0,0,0,0,0,0,0,0,0,0,0,0,0,0,0,2.1549,2.155,0,2.1668,2.167,2.1671,2.165,2.1648,2.1646,2.1644,2.1771,2.1776,2.1781,0,0,0,0,0,0,0,0,0,0,0,0,0,2.1306,2.1311,2.1549,2.155,2.1552,2.1668,2.167,2.1671,2.1651,2.1648,2.1645,2.1643,2.1769,2.1775,2.1782,0,0,0,0,0,0,0,0,0,0,0,0,0,2.1417,2.1312,2.1548,2.1555,2.1557,2.1668,2.167,2.1672,2.1651,2.1648,2.1645,2.1642,2.1767,2.1775,2.1783,2.1895,0,0,2.1807,2.1811,0,0,0,0,0,0,0,0,2.1411,2.1426,2.1553,2.1555,2.1557,2.1641,2.1631,2.1747,2.1652,2.1616,2.1644,2.164,2.173,2.1741,2.1771,2.1901,2.1907,2.1808,2.1813,2.1816,2.1818,0,0,0,0,0,0,0,2.1403,2.1421,2.1596,2.1555,2.1557,2.1553,2.1566,2.1653,2.1689,2.1618,2.1617,2.1631,2.1731,2.1763,2.1774,2.1909,2.1808,2.1815,2.182,2.1823,2.2137,2.214,0,0,0,0,0,0,2.1393,2.1415,2.1592,2.16,2.1475,2.156,2.1574,2.1617,2.1688,2.1696,2.1634,2.163,2.1751,2.1764,2.1778,2.1914,2.1816,2.1824,2.1828,2.2133,2.2138,2.2142,0,0,0,0,0,0,2.1388,2.1409,2.1587,2.1507,2.1529,2.1568,2.1617,2.1621,2.1653,2.17,2.1707,2.166,2.1749,2.1767,2.1866,2.1918,2.1827,2.1834,2.2129,2.2135,2.214,2.2187,0,0,0,0,0,0,2.1381,2.1407,2.145,2.1508,2.1534,2.1672,2.162,2.1626,2.1667,2.1662,2.1726,2.1733,2.1748,2.1854,2.1874,2.1927,2.1841,2.2125,2.2132,2.2138,2.2181,2.2193,2.2204,0,0,0,0,0,2.1372,2.1459,2.1452,2.1473,2.1587,2.1675,2.169,2.1704,2.1671,2.1714,2.1744,2.1731,2.1909,2.1864,2.1886,2.1943,2.2122,2.213,2.2137,2.2176,2.2191,2.2204,0,0,0,0,0,0,2.1408,2.1467,2.1459,2.1568,2.1616,2.1672,2.1727,2.1719,2.178,2.1773,2.1789,2.1804,2.1904,2.1934,2.1883,2.2056,2.2011,2.2024,2.2033,2.2047,2.2058,2.2049,2.1847,0,0,0,0,0,2.1428,2.1493,2.1542,2.1633,2.1658,2.1688,2.1727,2.1733,2.1785,2.1806,2.1843,2.1895,2.1962,2.2006,2.2071,2.2185,2.2199,2.2235,2.2247,2.2256,2.2267,2.2329,2.2345,2.2168,2.2168,2.2168,0,0,2.1471,2.1511,2.1552,2.1641,2.168,2.1748,2.1706,2.178,2.1831,2.1818,2.1913,2.1942,2.2001,2.2108,2.2157,2.2136,2.2319,2.2266,2.2273,2.2279,2.2339,2.2355,2.237,2.2173,2.2172,2.2171,0,0,2.1584,2.1621,2.17,2.1739,2.1797,2.1817,2.1836,2.1892,2.191,2.2006,2.1997,2.2059,2.2175,2.2217,2.2253,2.2381,2.2372,2.2402,2.2462,2.2522,2.2536,2.2548,2.2593,2.2609,2.2413,2.2413,2.2413,0,2.163,2.1731,2.1742,2.1817,2.1856,2.1846,2.1927,2.1965,2.2042,2.207,2.2045,2.2189,2.2228,2.2344,2.2375,2.2405,2.2428,2.2395,2.2533,2.2545,2.2557,2.26,2.2617,2.2416,2.2416,2.2415,2.2415,0,2.1785,2.1855,2.1912,2.1985,2.2031,2.2109,2.2133,2.2178,2.218,2.2203,2.23,2.2346,2.242,2.2448,2.2452,2.2565,2.255,2.2529,2.2484,2.2577,2.2618,2.2635,2.2421,2.242,2.2419,2.2418,0,0,2.1923,2.2,2.2021,2.2053,2.2117,2.2172,2.2249,2.232,2.2358,2.2412,2.2477,2.2575,2.2556,2.2597,2.2605,2.2658,2.2756,2.2631,2.2632,2.2652,2.2883,2.2898,2.2917,2.275,2.2753,2.2756,2.2878,0,2.2041,2.2176,2.2188,2.2309,2.2374,2.2365,2.2433,2.2479,2.2502,2.2562,2.2588,2.2657,2.2626,2.2651,2.2703,2.2733,2.2802,2.2724,2.2811,2.2814,2.2796,2.2938,2.2954,2.3067,2.2894,2.2897,2.2899,0,2.2197,2.2253,2.238,2.2433,2.2461,2.2522,2.2586,2.2643,2.2696,2.2709,2.2755,2.2756,2.2837,2.2789,2.29,2.2846,2.2883,2.2903,2.2908,2.2916,2.2862,2.295,2.3104,2.312,2.2924,2.2922,2.292,0,2.2284,2.2392,2.2482,2.251,2.2575,2.2617,2.2646,2.2696,2.2737,2.2795,2.2821,2.2888,2.2925,2.2977,2.2996,2.2959,2.3106,2.306,2.3119,2.3119,2.315,2.3148,2.3312,2.3175,2.3175,2.3174,2.3174,0,2.2414,2.2492,2.2521,2.2577,2.2664,2.2678,2.2764,2.2792,2.2836,2.2897,2.2894,2.2951,2.2973,2.3035,2.3051,2.314,2.3157,2.317,2.3173,2.317,2.3168,2.3193,2.3186,2.3179,2.3178,2.3177,2.3176,0,2.2526,2.2549,2.2646,2.2699,2.2714,2.2776,2.2822,2.2875,2.2897,2.2975,2.2994,2.3029,2.3101,2.3125,2.3213,2.3223,2.3327,2.3324,2.3309,2.3309,2.3367,2.3361,2.3552,2.3577,2.3425,2.3426,2.3427,0,2.2607,2.2666,2.2725,2.2765,2.2795,2.286,2.2902,2.2918,2.2962,2.3026,2.3072,2.3143,2.3201,2.3317,2.335,2.3418,2.3416,2.3478,2.3426,2.342,2.3416,2.3411,2.3417,2.3488,2.3489,2.349,2.3492,0,2.2748,2.2756,2.2815,2.2879,2.2928,2.2979,2.3029,2.3062,2.3086,2.3135,2.3208,2.3252,2.3341,2.3412,2.348,2.3511,2.3506,2.3508,2.3525,2.3522,2.351,2.3516,2.3334,2.3503,2.3502,2.3501,2.3501,2.35,2.2846,2.2898,2.2948,2.3014,2.3052,2.3099,2.3151,2.3179,2.324,2.3312,2.3319,2.3397,2.3449,2.3539,2.3574,2.3636,2.3619,2.3644,2.365,2.3656,2.366,2.3501,2.3649,2.3649,2.3648,2.3648,2.3648,0,2.2986,2.3017,2.3078,2.3146,2.3199,2.3188,2.3242,2.3286,2.3355,2.3403,2.3459,2.3543,2.3611,2.365,2.3719,2.3761,2.376,2.3779,2.3775,2.3782,2.3672,2.365,2.3778,2.3778,2.3778,2.3778,2.3778,2.3778,2.3065,2.3152,2.3166,2.3273,2.3304,2.338,2.3412,2.3454,2.3492,2.3585,2.3642,2.3666,2.3711,2.3782,2.3845,2.3855,2.388,2.39,2.3908,2.3804,2.379,2.3778,2.3757,2.3905,2.3906,2.4013,2.4014,2.4015]},{"header":{"parameterUnit":"m.s-1","parameterCategory":1,"la1":30.2991,"la2":30.254,"lo1":-89.0895,"lo2":-89.0444,"dy":0.0017,"dx":0.0017,"nx":28,"ny":28,"refTime":"2024-11-25T03:00:00:Z","depth":0,"parameterNumber":3,"parameterNumberName":"V-component_of_WINDS"},"data":[0,0,0,0,0,0,0,0,0,0,0,0,0,0,0,0,0,0,0,0,0,0,0,0,0,0,0,0,0,0,0,0,0,0,0,0,0,0,0,0,0,0,0,0,0,0,0,0,0,0,0,0,0,0,0,0,0,0,3.1193,3.1196,0,3.14,3.1402,3.1405,3.1451,3.1449,3.1448,3.1446,3.1659,3.1666,3.1673,0,0,0,0,0,0,0,0,0,0,0,0,0,3.084,3.0846,3.1193,3.1196,3.1198,3.1399,3.1402,3.1405,3.1451,3.1449,3.1447,3.1445,3.1657,3.1665,3.1674,0,0,0,0,0,0,0,0,0,0,0,0,0,3.1015,3.0848,3.1193,3.1245,3.1252,3.1399,3.1402,3.1406,3.1451,3.1449,3.1447,3.1445,3.1654,3.1665,3.1675,3.1785,0,0,3.1707,3.1712,0,0,0,0,0,0,0,0,3.1005,3.1028,3.1235,3.1242,3.125,3.1397,3.1356,3.1533,3.1452,3.1376,3.1446,3.1444,3.1574,3.1591,3.1635,3.1795,3.1804,3.1708,3.1715,3.1719,3.1722,0,0,0,0,0,0,0,3.0992,3.1019,3.1275,3.1238,3.1247,3.1259,3.1281,3.139,3.1485,3.1382,3.1386,3.141,3.1578,3.1624,3.164,3.1807,3.1708,3.1717,3.1724,3.1728,3.2068,3.207,0,0,0,0,0,0,3.0971,3.1008,3.1268,3.1281,3.1119,3.1267,3.1292,3.1352,3.1484,3.1502,3.1411,3.1411,3.1607,3.1628,3.1648,3.1786,3.1719,3.1729,3.1735,3.2065,3.2068,3.2071,0,0,0,0,0,0,3.0963,3.0994,3.126,3.1146,3.1181,3.1276,3.1342,3.1357,3.1404,3.1506,3.1523,3.1442,3.1606,3.1633,3.175,3.1794,3.1734,3.1743,3.2062,3.2066,3.207,3.2062,0,0,0,0,0,0,3.0953,3.0991,3.1033,3.1147,3.1187,3.1359,3.1345,3.1363,3.1422,3.1424,3.1539,3.1556,3.1607,3.1734,3.1761,3.1807,3.1752,3.2059,3.2064,3.2069,3.2059,3.2065,3.207,0,0,0,0,0,3.094,3.1023,3.1035,3.1066,3.1242,3.1361,3.1384,3.1441,3.1425,3.1469,3.1534,3.1552,3.1784,3.1746,3.1776,3.1826,3.2056,3.2062,3.2068,3.2056,3.2064,3.207,0,0,0,0,0,0,3.0912,3.1038,3.1053,3.1175,3.1257,3.1369,3.1426,3.1447,3.1536,3.1534,3.16,3.1626,3.174,3.1795,3.175,3.194,3.192,3.1932,3.19,3.1908,3.1914,3.1899,3.1761,0,0,0,0,0,3.092,3.1006,3.1112,3.1209,3.1249,3.133,3.1385,3.1421,3.1509,3.1544,3.1618,3.1703,3.1795,3.1854,3.1945,3.2066,3.2092,3.2116,3.2121,3.2126,3.2136,3.2205,3.2217,3.2091,3.2091,3.2091,0,0,3.0938,3.1017,3.1068,3.1206,3.1273,3.1362,3.1359,3.1453,3.1519,3.1558,3.1674,3.1731,3.183,3.195,3.2007,3.2,3.2177,3.2133,3.2136,3.2145,3.2213,3.2225,3.2235,3.2095,3.2095,3.2094,0,0,3.1015,3.1084,3.1173,3.124,3.1343,3.1396,3.1417,3.1526,3.1565,3.1682,3.1713,3.1793,3.195,3.202,3.2076,3.2179,3.2199,3.2206,3.2238,3.2304,3.2314,3.2323,3.2361,3.2374,3.2216,3.2216,3.2216,0,3.1025,3.1159,3.1216,3.1308,3.1368,3.1406,3.1497,3.156,3.1687,3.1728,3.1718,3.1916,3.1985,3.2123,3.2148,3.2191,3.2218,3.2194,3.2308,3.2318,3.2327,3.2364,3.2378,3.2216,3.2216,3.2216,3.2216,0,3.1166,3.1258,3.1317,3.1438,3.1505,3.1596,3.1668,3.1728,3.1758,3.1812,3.1931,3.2016,3.2124,3.2159,3.2189,3.2301,3.2293,3.2294,3.2276,3.2339,3.2375,3.2389,3.2217,3.2216,3.2216,3.2216,0,0,3.1233,3.1384,3.1405,3.146,3.1576,3.1649,3.1741,3.1847,3.1898,3.1984,3.2064,3.2196,3.2198,3.2261,3.23,3.2358,3.2435,3.2352,3.2356,3.2366,3.2564,3.2564,3.2579,3.2448,3.2451,3.2454,3.2557,0,3.1326,3.1493,3.1547,3.1686,3.1773,3.181,3.1891,3.197,3.2023,3.2105,3.2163,3.2256,3.2251,3.2289,3.2348,3.2413,3.2476,3.2406,3.2525,3.2528,3.25,3.2598,3.2598,3.2691,3.2571,3.2573,3.2575,0,3.1457,3.1545,3.1692,3.1797,3.1835,3.1907,3.2008,3.2085,3.2176,3.2211,3.2281,3.2315,3.2414,3.2388,3.2526,3.2477,3.2528,3.2567,3.2572,3.2587,3.2557,3.2617,3.2722,3.2736,3.2597,3.2596,3.2594,0,3.1493,3.1648,3.1757,3.1803,3.1927,3.1977,3.2031,3.212,3.218,3.2268,3.2308,3.2406,3.2461,3.2536,3.2596,3.2571,3.2729,3.2708,3.2761,3.276,3.2794,3.2791,3.2911,3.2824,3.2824,3.2824,3.2823,0,3.1593,3.1682,3.1774,3.1841,3.1943,3.2003,3.2102,3.2158,3.2237,3.2316,3.2353,3.2427,3.25,3.2584,3.2631,3.2738,3.2762,3.2793,3.2805,3.2791,3.2787,3.2827,3.2823,3.2827,3.2827,3.2826,3.2825,0,3.1651,3.1716,3.1837,3.1945,3.1974,3.2044,3.2136,3.2203,3.2256,3.2356,3.2383,3.2467,3.2567,3.2634,3.2761,3.2793,3.291,3.292,3.288,3.2886,3.2936,3.2931,3.3086,3.311,3.3006,3.3006,3.3007,0,3.1711,3.178,3.1895,3.195,3.2004,3.2093,3.2154,3.2216,3.2278,3.2387,3.2441,3.2543,3.2628,3.2786,3.2859,3.2957,3.2971,3.3018,3.2986,3.2969,3.2973,3.2969,3.2977,3.3024,3.3025,3.3025,3.3026,0,3.181,3.1839,3.1926,3.2024,3.2095,3.2176,3.2256,3.2299,3.2376,3.2444,3.2546,3.2612,3.2742,3.2843,3.2948,3.3004,3.3029,3.3035,3.3053,3.304,3.3015,3.3031,3.2895,3.3032,3.3031,3.3031,3.303,3.303,3.1873,3.1937,3.2027,3.2122,3.2189,3.2263,3.2331,3.2393,3.2479,3.259,3.2621,3.2728,3.2817,3.296,3.3018,3.3103,3.3098,3.3123,3.313,3.3136,3.3137,3.2999,3.3122,3.3122,3.3122,3.3122,3.3122,0,3.1976,3.2035,3.2122,3.2233,3.2308,3.2323,3.2413,3.2475,3.2568,3.2649,3.2732,3.2849,3.2948,3.3028,3.313,3.3182,3.3196,3.3207,3.3204,3.3217,3.3135,3.311,3.3194,3.3194,3.3194,3.3194,3.3194,3.3194,3.2038,3.2147,3.2186,3.2329,3.2388,3.2493,3.2543,3.2612,3.2677,3.2806,3.2888,3.2939,3.3021,3.3128,3.3219,3.324,3.3276,3.3285,3.3309,3.3231,3.3223,3.3215,3.3192,3.3292,3.3292,3.3385,3.3385,3.3386]}]]